Location: El Conde
(10.2895°N, 67.2409°W)
Time: 07:37:14
(UTC+00:00)

Okean 1-7 Rocket - Pass Details

Date: 19 May 2024
Orbit: 612 x 647 km, 82.5° (Epoch: 22 June)

Event Time Altitude Azimuth Distance (km) Brightness Sun altitude
Rises 23:01:45 0° 2° (N) 2,906 7.3 -4.8°
Reaches altitude 10° 23:04:01 10° 7° (N) 1,994 6.4 -5.4°
Maximum altitude 23:08:21 56° 85° (E) 737 3.7 -6.3°
Drops below altitude 10° 23:12:39 10° 164° (SSE) 1,976 5.8 -7.3°
Sets 23:14:53 0° 168° (SSE) 2,877 6.7 -7.8°
